﻿測定場所 (Monitoring sites),日付 (Measurement date),時間 (Measurement time),線量率 最大値 (max) μGy/h,線量率 最小値 (min) μGy/h,線量率 平均値 (average) μGy/h,
足立 (Adachi),2014-11-30,23:01～24:00,0.0517,0.0424,0.0465,
足立 (Adachi),2014-11-30,22:01～23:00,0.0478,0.0403,0.0439,
足立 (Adachi),2014-11-30,21:01～22:00,0.0442,0.0401,0.0422,
足立 (Adachi),2014-11-30,20:01～21:00,0.0443,0.0393,0.0416,
足立 (Adachi),2014-11-30,19:01～20:00,0.0445,0.0384,0.0413,
足立 (Adachi),2014-11-30,18:01～19:00,0.0456,0.0390,0.0414,
足立 (Adachi),2014-11-30,17:01～18:00,0.0444,0.0377,0.0404,
足立 (Adachi),2014-11-30,16:01～17:00,0.0442,0.0379,0.0407,
足立 (Adachi),2014-11-30,15:01～16:00,0.0452,0.0377,0.0410,
足立 (Adachi),2014-11-30,14:01～15:00,0.0444,0.0392,0.0413,
足立 (Adachi),2014-11-30,13:01～14:00,0.0446,0.0380,0.0415,
足立 (Adachi),2014-11-30,12:01～13:00,0.0445,0.0380,0.0411,
足立 (Adachi),2014-11-30,11:01～12:00,0.0449,0.0390,0.0415,
足立 (Adachi),2014-11-30,10:01～11:00,0.0457,0.0389,0.0413,
足立 (Adachi),2014-11-30,09:01～10:00,0.0446,0.0390,0.0414,
足立 (Adachi),2014-11-30,08:01～09:00,0.0469,0.0393,0.0418,
足立 (Adachi),2014-11-30,07:01～08:00,0.0433,0.0378,0.0408,
足立 (Adachi),2014-11-30,06:01～07:00,0.0445,0.0386,0.0415,
足立 (Adachi),2014-11-30,05:01～06:00,0.0451,0.0389,0.0418,
足立 (Adachi),2014-11-30,04:01～05:00,0.0456,0.0393,0.0418,
足立 (Adachi),2014-11-30,03:01～04:00,0.0440,0.0387,0.0419,
足立 (Adachi),2014-11-30,02:01～03:00,0.0443,0.0378,0.0415,
足立 (Adachi),2014-11-30,01:01～02:00,0.0451,0.0393,0.0418,
足立 (Adachi),2014-11-30,00:01～01:00,0.0441,0.0386,0.0419,
足立 (Adachi),2014-11-29,23:01～24:00,0.0451,0.0383,0.0420,
足立 (Adachi),2014-11-29,22:01～23:00,0.0449,0.0386,0.0421,
足立 (Adachi),2014-11-29,21:01～22:00,0.0450,0.0389,0.0422,
足立 (Adachi),2014-11-29,20:01～21:00,0.0451,0.0391,0.0420,
足立 (Adachi),2014-11-29,19:01～20:00,0.0442,0.0385,0.0416,
足立 (Adachi),2014-11-29,18:01～19:00,0.0454,0.0385,0.0417,
足立 (Adachi),2014-11-29,17:01～18:00,0.0454,0.0385,0.0414,
足立 (Adachi),2014-11-29,16:01～17:00,0.0444,0.0385,0.0417,
足立 (Adachi),2014-11-29,15:01～16:00,0.0470,0.0393,0.0426,
足立 (Adachi),2014-11-29,14:01～15:00,0.0538,0.0421,0.0468,
足立 (Adachi),2014-11-29,13:01～14:00,0.0553,0.0473,0.0519,
足立 (Adachi),2014-11-29,12:01～13:00,0.0580,0.0496,0.0533,
足立 (Adachi),2014-11-29,11:01～12:00,0.0518,0.0403,0.0453,
足立 (Adachi),2014-11-29,10:01～11:00,0.0462,0.0392,0.0431,
足立 (Adachi),2014-11-29,09:01～10:00,0.0457,0.0394,0.0425,
足立 (Adachi),2014-11-29,08:01～09:00,0.0446,0.0389,0.0420,
足立 (Adachi),2014-11-29,07:01～08:00,0.0444,0.0387,0.0420,
足立 (Adachi),2014-11-29,06:01～07:00,0.0448,0.0395,0.0422,
足立 (Adachi),2014-11-29,05:01～06:00,0.0452,0.0400,0.0423,
足立 (Adachi),2014-11-29,04:01～05:00,0.0451,0.0393,0.0425,
足立 (Adachi),2014-11-29,03:01～04:00,0.0455,0.0392,0.0425,
足立 (Adachi),2014-11-29,02:01～03:00,0.0452,0.0400,0.0423,
足立 (Adachi),2014-11-29,01:01～02:00,0.0445,0.0404,0.0425,
足立 (Adachi),2014-11-29,00:01～01:00,0.0468,0.0393,0.0421,
足立 (Adachi),2014-11-28,23:01～24:00,0.0457,0.0379,0.0424,
足立 (Adachi),2014-11-28,22:01～23:00,0.0450,0.0390,0.0420,
足立 (Adachi),2014-11-28,21:01～22:00,0.0460,0.0386,0.0422,
足立 (Adachi),2014-11-28,20:01～21:00,0.0453,0.0376,0.0421,
足立 (Adachi),2014-11-28,19:01～20:00,0.0455,0.0392,0.0424,
足立 (Adachi),2014-11-28,18:01～19:00,0.0456,0.0391,0.0421,
足立 (Adachi),2014-11-28,17:01～18:00,0.0448,0.0388,0.0417,
足立 (Adachi),2014-11-28,16:01～17:00,0.0461,0.0397,0.0425,
足立 (Adachi),2014-11-28,15:01～16:00,0.0445,0.0389,0.0418,
足立 (Adachi),2014-11-28,14:01～15:00,0.0462,0.0390,0.0416,
足立 (Adachi),2014-11-28,13:01～14:00,0.0446,0.0390,0.0421,
足立 (Adachi),2014-11-28,12:01～13:00,0.0459,0.0398,0.0424,
足立 (Adachi),2014-11-28,11:01～12:00,0.0451,0.0390,0.0419,
足立 (Adachi),2014-11-28,10:01～11:00,0.0462,0.0394,0.0421,
足立 (Adachi),2014-11-28,09:01～10:00,0.0447,0.0396,0.0420,
足立 (Adachi),2014-11-28,08:01～09:00,0.0459,0.0388,0.0421,
足立 (Adachi),2014-11-28,07:01～08:00,0.0451,0.0389,0.0421,
足立 (Adachi),2014-11-28,06:01～07:00,0.0441,0.0382,0.0419,
足立 (Adachi),2014-11-28,05:01～06:00,0.0461,0.0402,0.0426,
足立 (Adachi),2014-11-28,04:01～05:00,0.0457,0.0393,0.0422,
足立 (Adachi),2014-11-28,03:01～04:00,0.0443,0.0394,0.0422,
足立 (Adachi),2014-11-28,02:01～03:00,0.0446,0.0379,0.0418,
足立 (Adachi),2014-11-28,01:01～02:00,0.0439,0.0385,0.0412,
足立 (Adachi),2014-11-28,00:01～01:00,0.0461,0.0395,0.0418,
足立 (Adachi),2014-11-27,23:01～24:00,0.0450,0.0389,0.0417,
足立 (Adachi),2014-11-27,22:01～23:00,0.0438,0.0385,0.0415,
足立 (Adachi),2014-11-27,21:01～22:00,0.0444,0.0389,0.0415,
足立 (Adachi),2014-11-27,20:01～21:00,0.0443,0.0370,0.0414,
足立 (Adachi),2014-11-27,19:01～20:00,0.0449,0.0382,0.0414,
足立 (Adachi),2014-11-27,18:01～19:00,0.0446,0.0369,0.0411,
足立 (Adachi),2014-11-27,17:01～18:00,0.0435,0.0376,0.0406,
足立 (Adachi),2014-11-27,16:01～17:00,0.0438,0.0387,0.0411,
足立 (Adachi),2014-11-27,15:01～16:00,0.0440,0.0384,0.0409,
足立 (Adachi),2014-11-27,14:01～15:00,0.0443,0.0377,0.0409,
足立 (Adachi),2014-11-27,13:01～14:00,0.0445,0.0369,0.0412,
足立 (Adachi),2014-11-27,12:01～13:00,0.0442,0.0383,0.0411,
足立 (Adachi),2014-11-27,11:01～12:00,0.0451,0.0381,0.0412,
足立 (Adachi),2014-11-27,10:01～11:00,0.0434,0.0369,0.0407,
足立 (Adachi),2014-11-27,09:01～10:00,0.0446,0.0381,0.0414,
足立 (Adachi),2014-11-27,08:01～09:00,0.0444,0.0363,0.0404,
足立 (Adachi),2014-11-27,07:01～08:00,0.0433,0.0367,0.0402,
足立 (Adachi),2014-11-27,06:01～07:00,0.0431,0.0366,0.0400,
足立 (Adachi),2014-11-27,05:01～06:00,0.0437,0.0374,0.0411,
足立 (Adachi),2014-11-27,04:01～05:00,0.0465,0.0379,0.0415,
足立 (Adachi),2014-11-27,03:01～04:00,0.0501,0.0399,0.0440,
足立 (Adachi),2014-11-27,02:01～03:00,0.0555,0.0450,0.0495,
足立 (Adachi),2014-11-27,01:01～02:00,0.0539,0.0444,0.0501,
足立 (Adachi),2014-11-27,00:01～01:00,0.0477,0.0393,0.0428,
足立 (Adachi),2014-11-26,23:01～24:00,0.0445,0.0376,0.0413,
足立 (Adachi),2014-11-26,22:01～23:00,0.0440,0.0380,0.0413,
足立 (Adachi),2014-11-26,21:01～22:00,0.0451,0.0383,0.0416,
足立 (Adachi),2014-11-26,20:01～21:00,0.0450,0.0389,0.0421,
足立 (Adachi),2014-11-26,19:01～20:00,0.0471,0.0403,0.0438,
足立 (Adachi),2014-11-26,18:01～19:00,0.0539,0.0425,0.0473,
足立 (Adachi),2014-11-26,17:01～18:00,0.0643,0.0509,0.0570,
足立 (Adachi),2014-11-26,16:01～17:00,0.0705,0.0585,0.0639,
足立 (Adachi),2014-11-26,15:01～16:00,0.0687,0.0594,0.0637,
足立 (Adachi),2014-11-26,14:01～15:00,0.0701,0.0571,0.0642,
足立 (Adachi),2014-11-26,13:01～14:00,0.0711,0.0560,0.0626,
足立 (Adachi),2014-11-26,12:01～13:00,0.0633,0.0557,0.0583,
足立 (Adachi),2014-11-26,11:01～12:00,0.0681,0.0558,0.0628,
足立 (Adachi),2014-11-26,10:01～11:00,0.0664,0.0561,0.0611,
足立 (Adachi),2014-11-26,09:01～10:00,0.0739,0.0630,0.0681,
足立 (Adachi),2014-11-26,08:01～09:00,0.0728,0.0617,0.0669,
足立 (Adachi),2014-11-26,07:01～08:00,0.0738,0.0657,0.0699,
足立 (Adachi),2014-11-26,06:01～07:00,0.0856,0.0693,0.0746,
足立 (Adachi),2014-11-26,05:01～06:00,0.0782,0.0672,0.0730,
足立 (Adachi),2014-11-26,04:01～05:00,0.0905,0.0734,0.0809,
足立 (Adachi),2014-11-26,03:01～04:00,0.0890,0.0675,0.0770,
足立 (Adachi),2014-11-26,02:01～03:00,0.0786,0.0683,0.0729,
足立 (Adachi),2014-11-26,01:01～02:00,0.0730,0.0599,0.0678,
足立 (Adachi),2014-11-26,00:01～01:00,0.0627,0.0531,0.0583,
足立 (Adachi),2014-11-25,23:01～24:00,0.0629,0.0537,0.0586,
足立 (Adachi),2014-11-25,22:01～23:00,0.0591,0.0506,0.0551,
足立 (Adachi),2014-11-25,21:01～22:00,0.0577,0.0464,0.0513,
足立 (Adachi),2014-11-25,20:01～21:00,0.0497,0.0417,0.0460,
足立 (Adachi),2014-11-25,19:01～20:00,0.0462,0.0407,0.0436,
足立 (Adachi),2014-11-25,18:01～19:00,0.0470,0.0415,0.0443,
足立 (Adachi),2014-11-25,17:01～18:00,0.0523,0.0431,0.0478,
足立 (Adachi),2014-11-25,16:01～17:00,0.0509,0.0441,0.0473,
足立 (Adachi),2014-11-25,15:01～16:00,0.0546,0.0459,0.0502,
足立 (Adachi),2014-11-25,14:01～15:00,0.0621,0.0512,0.0562,
足立 (Adachi),2014-11-25,13:01～14:00,0.0657,0.0549,0.0610,
足立 (Adachi),2014-11-25,12:01～13:00,0.0695,0.0574,0.0637,
足立 (Adachi),2014-11-25,11:01～12:00,0.0626,0.0514,0.0564,
足立 (Adachi),2014-11-25,10:01～11:00,0.0592,0.0499,0.0547,
足立 (Adachi),2014-11-25,09:01～10:00,0.0571,0.0444,0.0504,
足立 (Adachi),2014-11-25,08:01～09:00,0.0513,0.0448,0.0480,
足立 (Adachi),2014-11-25,07:01～08:00,0.0512,0.0436,0.0474,
足立 (Adachi),2014-11-25,06:01～07:00,0.0500,0.0411,0.0450,
足立 (Adachi),2014-11-25,05:01～06:00,0.0505,0.0420,0.0442,
足立 (Adachi),2014-11-25,04:01～05:00,0.0467,0.0410,0.0440,
足立 (Adachi),2014-11-25,03:01～04:00,0.0466,0.0409,0.0439,
足立 (Adachi),2014-11-25,02:01～03:00,0.0469,0.0410,0.0440,
足立 (Adachi),2014-11-25,01:01～02:00,0.0463,0.0410,0.0436,
足立 (Adachi),2014-11-25,00:01～01:00,0.0477,0.0396,0.0437,
足立 (Adachi),2014-11-24,23:01～24:00,0.0468,0.0397,0.0434,
足立 (Adachi),2014-11-24,22:01～23:00,0.0456,0.0395,0.0430,
足立 (Adachi),2014-11-24,21:01～22:00,0.0476,0.0401,0.0432,
足立 (Adachi),2014-11-24,20:01～21:00,0.0462,0.0402,0.0433,
足立 (Adachi),2014-11-24,19:01～20:00,0.0454,0.0407,0.0433,
足立 (Adachi),2014-11-24,18:01～19:00,0.0474,0.0399,0.0431,
足立 (Adachi),2014-11-24,17:01～18:00,0.0454,0.0390,0.0427,
足立 (Adachi),2014-11-24,16:01～17:00,0.0459,0.0388,0.0429,
足立 (Adachi),2014-11-24,15:01～16:00,0.0458,0.0389,0.0432,
足立 (Adachi),2014-11-24,14:01～15:00,0.0454,0.0402,0.0432,
足立 (Adachi),2014-11-24,13:01～14:00,0.0461,0.0401,0.0430,
足立 (Adachi),2014-11-24,12:01～13:00,0.0460,0.0399,0.0431,
足立 (Adachi),2014-11-24,11:01～12:00,0.0464,0.0395,0.0434,
足立 (Adachi),2014-11-24,10:01～11:00,0.0488,0.0407,0.0435,
足立 (Adachi),2014-11-24,09:01～10:00,0.0469,0.0399,0.0436,
足立 (Adachi),2014-11-24,08:01～09:00,0.0463,0.0413,0.0439,
足立 (Adachi),2014-11-24,07:01～08:00,0.0470,0.0397,0.0425,
足立 (Adachi),2014-11-24,06:01～07:00,0.0468,0.0399,0.0433,
足立 (Adachi),2014-11-24,05:01～06:00,0.0458,0.0404,0.0430,
足立 (Adachi),2014-11-24,04:01～05:00,0.0458,0.0388,0.0432,
足立 (Adachi),2014-11-24,03:01～04:00,0.0470,0.0392,0.0430,
足立 (Adachi),2014-11-24,02:01～03:00,0.0466,0.0397,0.0428,
足立 (Adachi),2014-11-24,01:01～02:00,0.0448,0.0403,0.0428,
足立 (Adachi),2014-11-24,00:01～01:00,0.0456,0.0393,0.0428,
